Location: Burland Observatory
(39.4088°N, 105.4217°W)
Time: 01:34:47
(UTC-07:00)

Vanguard 3 - Pass Details

Date: 13 December 2019
Orbit: 508 x 3263 km, 33.3° (Epoch: 19 January)

Event Time Altitude Azimuth Distance (km) Brightness Sun altitude
Rises 06:01:55 0° 217° (SW) 3,097 10.0 -13.3°
Reaches altitude 10° 06:04:12 10° 204° (SSW) 2,406 9.5 -12.9°
Maximum altitude 06:09:02 28° 146° (SE) 1,924 9.7 -12.0°
Drops below altitude 10° 06:16:29 10° 92° (E) 3,821 11.9 -10.7°
Sets 06:21:11 0° 83° (E) 5,339 12.5 -9.8°
